[[{"header":{"parameterUnit":"m.s-1","parameterCategory":1,"la1":30.2992,"la2":30.254,"lo1":-89.0895,"lo2":-89.0443,"dy":0.0025,"dx":0.0025,"nx":19,"ny":19,"refTime":"2026-05-20T21:00:00:Z","depth":0,"parameterNumber":2,"parameterNumberName":"U-component_of_WINDS"},"data":[0,0,0,-2.4287,-2.4289,-2.442,-2.442,-2.458,-2.4581,0,0,0,0,0,0,0,0,0,0,0,-2.4242,-2.4243,-2.4286,-2.4289,-2.442,-2.442,-2.4579,-2.4581,0,0,0,0,0,0,0,0,0,0,0,-2.4241,-2.4242,-2.4243,-2.429,-2.442,-2.442,-2.4579,-2.4484,0,0,0,0,0,0,0,0,0,0,-2.4358,-2.431,-2.4242,-2.4243,-2.4291,-2.4419,-2.4421,-2.4479,-2.449,-2.4517,0,-2.4537,0,-2.4562,-2.4591,-2.4591,0,0,0,-2.4295,-2.4302,-2.4342,-2.4244,-2.4292,-2.4419,-2.4362,-2.4485,-2.4497,-2.453,-2.454,-2.4546,-2.4564,-2.4592,-2.4593,-2.4727,-2.4727,0,0,-2.4287,-2.4262,-2.4334,-2.435,-2.4327,-2.4358,-2.4366,-2.4492,-2.4502,-2.454,-2.455,-2.4567,-2.4593,-2.4594,-2.4727,-2.4727,0,0,0,-2.4263,-2.4257,-2.4295,-2.4343,-2.4367,-2.4362,-2.4371,-2.4496,-2.4511,-2.4552,-2.4569,-2.4594,-2.4596,-2.4726,-2.4727,-2.4719,0,0,0,-2.4259,-2.4243,-2.4291,-2.4277,-2.4364,-2.4433,-2.4372,-2.4502,-2.4517,-2.4568,-2.4594,-2.4597,-2.4726,-2.4726,-2.4718,-2.4719,0,0,0,-2.4235,-2.424,-2.4257,-2.4276,-2.4331,-2.4431,-2.4453,-2.4506,-2.4527,-2.4592,-2.4597,-2.4726,-2.4726,-2.4718,-2.4718,-2.4746,0,0,0,-2.4203,-2.425,-2.4256,-2.4315,-2.4329,-2.4426,-2.4453,-2.4526,-2.4581,-2.4594,-2.4726,-2.4727,-2.4718,-2.4718,-2.4745,-2.4762,-2.4768,0,0,-2.4248,-2.4254,-2.4291,-2.4301,-2.4389,-2.4408,-2.4496,-2.4571,-2.4602,-2.4684,-2.4688,-2.4719,-2.4718,-2.4746,-2.4811,-2.4814,0,0,0,-2.4296,-2.4322,-2.4351,-2.4401,-2.4459,-2.4508,-2.4572,-2.46,-2.4671,-2.4638,-2.4738,-2.4739,-2.4756,-2.4765,-2.4768,-2.4784,-2.4731,-2.473,-2.473,-2.4322,-2.4357,-2.442,-2.4471,-2.4519,-2.4585,-2.4628,-2.4677,-2.47,-2.4723,-2.4746,-2.4781,-2.4791,-2.4794,-2.481,-2.4761,-2.4761,-2.4761,-2.4761,-2.4389,-2.443,-2.4459,-2.4529,-2.4567,-2.4628,-2.4694,-2.4708,-2.477,-2.4766,-2.4783,-2.4774,-2.4797,-2.4813,-2.476,-2.476,-2.476,-2.476,-2.476,-2.4408,-2.4434,-2.4466,-2.4541,-2.4596,-2.4648,-2.4706,-2.4739,-2.4771,-2.4788,-2.4816,-2.4816,-2.4819,-2.48,-2.48,-2.48,-2.48,-2.48,-2.48,-2.4414,-2.4451,-2.4494,-2.4559,-2.4595,-2.4647,-2.4714,-2.4752,-2.4801,-2.4821,-2.4822,-2.4841,-2.4794,-2.4779,-2.4802,-2.4802,-2.4801,-2.4801,-2.4801,-2.4464,-2.4458,-2.4525,-2.4561,-2.464,-2.4692,-2.4734,-2.4807,-2.4843,-2.4871,-2.4888,-2.4848,-2.4857,-2.4855,-2.4843,-2.4881,-2.4881,-2.4881,-2.4881,-2.4478,-2.4487,-2.4562,-2.4617,-2.4676,-2.4721,-2.4797,-2.485,-2.4904,-2.4929,-2.4929,-2.4918,-2.4914,-2.4926,-2.4922,-2.4911,-2.4965,-2.4966,-2.4966,-2.4511,-2.4526,-2.4583,-2.4634,-2.4698,-2.4753,-2.4825,-2.4889,-2.495,-2.497,-2.4949,-2.4945,-2.4927,-2.492,-2.4936,-2.4929,-2.491,0,0]},{"header":{"parameterUnit":"m.s-1","parameterCategory":1,"la1":30.2992,"la2":30.254,"lo1":-89.0895,"lo2":-89.0443,"dy":0.0025,"dx":0.0025,"nx":19,"ny":19,"refTime":"2026-05-20T21:00:00:Z","depth":0,"parameterNumber":3,"parameterNumberName":"V-component_of_WINDS"},"data":[0,0,0,4.316,4.316,4.3192,4.3193,4.3215,4.3215,0,0,0,0,0,0,0,0,0,0,0,4.3141,4.3141,4.316,4.3161,4.3192,4.3193,4.3215,4.3215,0,0,0,0,0,0,0,0,0,0,0,4.3141,4.3141,4.3141,4.3161,4.3192,4.3193,4.3215,4.3197,0,0,0,0,0,0,0,0,0,0,4.3169,4.3142,4.3141,4.3141,4.3161,4.3192,4.3193,4.3196,4.3198,4.3193,0,4.3188,0,4.3202,4.3215,4.3215,0,0,0,4.3167,4.314,4.3158,4.3141,4.3161,4.3192,4.318,4.3197,4.3199,4.3195,4.3188,4.3189,4.3202,4.3215,4.3215,4.3171,4.317,0,0,4.3165,4.3141,4.3157,4.3159,4.3155,4.3179,4.3181,4.3199,4.3188,4.3188,4.319,4.3202,4.3215,4.3216,4.3171,4.3171,0,0,0,4.3156,4.3139,4.3157,4.3158,4.3165,4.318,4.3182,4.3188,4.3196,4.319,4.3203,4.3215,4.3216,4.3172,4.3171,4.3122,0,0,0,4.3155,4.3134,4.3156,4.3141,4.3165,4.3177,4.317,4.3195,4.3197,4.3203,4.3215,4.3216,4.3173,4.3171,4.3125,4.3102,0,0,0,4.3142,4.3132,4.3134,4.3139,4.3153,4.3177,4.3187,4.3196,4.3204,4.3215,4.3216,4.3173,4.3172,4.3127,4.3106,4.3083,0,0,0,4.312,4.3088,4.3133,4.3102,4.3152,4.3148,4.3187,4.3184,4.3188,4.3216,4.3172,4.3171,4.3128,4.3108,4.3086,4.3059,4.3046,0,0,4.3065,4.308,4.3064,4.3105,4.3087,4.3145,4.312,4.3145,4.3167,4.3168,4.3167,4.3124,4.3106,4.3084,4.2984,4.2974,0,0,0,4.3038,4.3026,4.3027,4.3031,4.3052,4.3068,4.3101,4.3111,4.3113,4.3163,4.3111,4.3101,4.3089,4.3077,4.3068,4.3059,4.3165,4.3165,4.3165,4.2923,4.2957,4.2933,4.2971,4.2974,4.3011,4.3016,4.3035,4.3066,4.3053,4.3052,4.2988,4.2974,4.2967,4.2957,4.3043,4.3042,4.3042,4.3042,4.2845,4.2833,4.2879,4.2872,4.2907,4.2901,4.2936,4.2958,4.2957,4.2991,4.2982,4.3014,4.2955,4.2948,4.3039,4.3039,4.304,4.304,4.304,4.2771,4.2771,4.2787,4.2798,4.2803,4.2843,4.2841,4.2874,4.2904,4.2895,4.2898,4.2899,4.2903,4.2895,4.2895,4.2894,4.2894,4.2894,4.2894,4.2687,4.2707,4.2702,4.2725,4.2733,4.2748,4.2787,4.2796,4.2813,4.2837,4.2837,4.2868,4.2944,4.2961,4.289,4.2891,4.2892,4.2892,4.2892,4.2592,4.262,4.2612,4.2621,4.2652,4.2655,4.2699,4.2714,4.2726,4.2724,4.2759,4.281,4.2826,4.2834,4.2848,4.2752,4.2752,4.2752,4.2752,4.2528,4.2542,4.2543,4.2555,4.2571,4.2611,4.26,4.2631,4.2667,4.2676,4.2696,4.2719,4.2725,4.2737,4.2747,4.2761,4.2645,4.2645,4.2645,4.2471,4.2488,4.2473,4.2512,4.254,4.2562,4.2554,4.2565,4.2611,4.2641,4.2684,4.2689,4.2726,4.2737,4.2764,4.2778,4.2804,0,0]}]]